User: anonymous   Login
Location: Prosper
(33.2362°N, 96.8011°W)
Time: 03:10:14
(UTC+00:00)
Language:

BREEZE-M DEB (TANK) - Orbit

View from above orbital plane
View from above orbital plane
View from above satellite
View from above satellite

Ground track
Ground track

The orbit data is extracted from the following two-line orbital elements,

1 39010U 12065C   22145.19045192  .00002413  00000-0  52737-3 0  9999
2 39010  49.6624 202.7107 4649279 330.2052   9.9842  6.18365913211368
Epoch (UTC): 25 May 2022 04:34:15
Eccentricity: 0.4649279
inclination: 49.6624°
perigee height: 331 km
apogee height: 11989 km
right ascension of ascending node: 202.7107°
argument of perigee: 330.2052°
revolutions per day: 6.18365913
mean anomaly at epoch: 9.9842°
orbit number at epoch: 21136

The dashed part of the orbit path shows where the satellite is in the earth's shadow,  

DLR